Vanaf de start van Weerstation Assen op 01-04-2009 wordt iedere 5 minuten data gestuurd naar de Weather Underground. In het overzicht hieronder is dit terug te vinden op datum en per 5 minuten.
Test XHTML 1.0 Strict Page for WU-History Testing
Station Historical Data
 
Dagelijks Overzicht voor Januari 19, 2019 Eenheden:  Metrisch    Engels   Beide
« Vorige Dag
Volgende Dag »
Dagelijks Wekelijks Maandelijks Jaarlijks Custom
  Huidig: Hoog: Laag: Gemiddeld:
Temperatuur: 1.0 °C 1.0 °C -3.5 °C -1.7 °C
Dauwpunt: -2.6 °C -2.6 °C -5.5 °C -4.1 °C
Vochtigheid: 77% 88% 77% 84%
Windsnelheid: 0.0km/h 7.4km/h 0.0km/h 1km/h
Windvlaag: 0.0km/h 8.0km/h - -
WindCalm - - SE
Luchtdruk: 1017.1 hPa 1019.7 hPa 1017.1 hPa -
Neerslag: 0.0 mm      
Historical Graphs
 
 
Tabel Data voor Januari 19, 2019
Time Temperatuur Dauwpunt Luchtdruk Wind Windsnelheid Windvlaag Vochtigheid Regenval intensiteit (Per uur) Zonkracht Condities
00:00 -1.0 °C -4.0 °C 1019.6 hPa South 7.4 km/h 2.4 km/h 80% 0.0 mm 0.00 W/m2 CLR
00:05 -1.0 °C -4.0 °C 1019.6 hPa South 5.6 km/h 1.1 km/h 80% 0.0 mm 0.00 W/m2 CLR
00:10 -1.1 °C -4.1 °C 1019.6 hPa South 3.7 km/h 0.3 km/h 80% 0.0 mm 0.00 W/m2 CLR
00:15 -1.0 °C -4.0 °C 1019.6 hPa Calm     80% 0.0 mm 0.00 W/m2 CLR
00:20 -1.0 °C -3.8 °C 1019.6 hPa Calm     81% 0.0 mm 0.00 W/m2 CLR
00:25 -1.1 °C -3.9 °C 1019.6 hPa Calm     81% 0.0 mm 0.00 W/m2 CLR
00:30 -1.1 °C -3.9 °C 1019.6 hPa Calm     81% 0.0 mm 0.00 W/m2 CLR
00:35 -1.1 °C -3.9 °C 1019.6 hPa Calm     81% 0.0 mm 0.00 W/m2 CLR
00:40 -1.1 °C -3.9 °C 1019.6 hPa Calm     81% 0.0 mm 0.00 W/m2 CLR
00:45 -1.2 °C -4.0 °C 1019.6 hPa Calm     81% 0.0 mm 0.00 W/m2 CLR
00:50 -1.2 °C -4.1 °C 1019.6 hPa Calm     81% 0.0 mm 0.00 W/m2 CLR
00:55 -1.2 °C -4.1 °C 1019.7 hPa Calm     81% 0.0 mm 0.00 W/m2 CLR
01:00 -1.3 °C -4.1 °C 1019.6 hPa Calm     81% 0.0 mm 0.00 W/m2 CLR
01:05 -1.3 °C -4.0 °C 1019.6 hPa Calm     82% 0.0 mm 0.00 W/m2 CLR
01:10 -1.3 °C -4.0 °C 1019.5 hPa Calm     82% 0.0 mm 0.00 W/m2 CLR
01:15 -1.4 °C -4.1 °C 1019.5 hPa Calm     82% 0.0 mm 0.00 W/m2 CLR
01:20 -1.4 °C -4.1 °C 1019.5 hPa Calm     82% 0.0 mm 0.00 W/m2 CLR
01:25 -1.4 °C -4.1 °C 1019.5 hPa Calm     82% 0.0 mm 0.00 W/m2 CLR
01:30 -1.5 °C -4.2 °C 1019.4 hPa Calm     82% 0.0 mm 0.00 W/m2 CLR
01:35 -1.6 °C -4.2 °C 1019.4 hPa Calm     82% 0.0 mm 0.00 W/m2 CLR
01:40 -1.6 °C -4.2 °C 1019.4 hPa Calm     82% 0.0 mm 0.00 W/m2 CLR
01:45 -1.7 °C -4.2 °C 1019.4 hPa Calm     83% 0.0 mm 0.00 W/m2 CLR
01:50 -1.7 °C -4.2 °C 1019.4 hPa Calm     83% 0.0 mm 0.00 W/m2 CLR
01:55 -1.7 °C -4.2 °C 1019.3 hPa Calm     83% 0.0 mm 0.00 W/m2 CLR
02:00 -1.7 °C -4.2 °C 1019.3 hPa Calm     83% 0.0 mm 0.00 W/m2 CLR
02:05 -1.7 °C -4.2 °C 1019.4 hPa Calm     83% 0.0 mm 0.00 W/m2 CLR
02:10 -1.7 °C -4.1 °C 1019.3 hPa Calm     84% 0.0 mm 0.00 W/m2 CLR
02:15 -1.8 °C -4.1 °C 1019.3 hPa Calm     84% 0.0 mm 0.00 W/m2 CLR
02:20 -1.8 °C -4.1 °C 1019.3 hPa Calm     84% 0.0 mm 0.00 W/m2 CLR
02:25 -1.8 °C -4.2 °C 1019.3 hPa Calm     84% 0.0 mm 0.00 W/m2 CLR
02:30 -1.8 °C -4.2 °C 1019.3 hPa Calm     84% 0.0 mm 0.00 W/m2 CLR
02:35 -1.8 °C -4.2 °C 1019.3 hPa Calm     84% 0.0 mm 0.00 W/m2 CLR
02:40 -1.8 °C -4.2 °C 1019.3 hPa Calm     84% 0.0 mm 0.00 W/m2 CLR
02:45 -1.8 °C -4.2 °C 1019.2 hPa Calm     84% 0.0 mm 0.00 W/m2 CLR
02:50 -1.9 °C -4.2 °C 1019.2 hPa Calm     84% 0.0 mm 0.00 W/m2 CLR
02:55 -1.9 °C -4.2 °C 1019.2 hPa Calm     84% 0.0 mm 0.00 W/m2 CLR
03:00 -1.9 °C -4.1 °C 1019.2 hPa Calm     85% 0.0 mm 0.00 W/m2 CLR
03:05 -1.9 °C -4.1 °C 1019.1 hPa Calm     85% 0.0 mm 0.00 W/m2 CLR
03:10 -1.9 °C -4.1 °C 1019.1 hPa Calm     85% 0.0 mm 0.00 W/m2 CLR
03:15 -1.9 °C -4.1 °C 1019.1 hPa Calm     85% 0.0 mm 0.00 W/m2 CLR
03:20 -1.9 °C -4.1 °C 1019.1 hPa Calm     85% 0.0 mm 0.00 W/m2 CLR
03:25 -1.9 °C -4.1 °C 1019.1 hPa Calm     85% 0.0 mm 0.00 W/m2 CLR
03:30 -1.9 °C -4.1 °C 1019.1 hPa Calm     85% 0.0 mm 0.00 W/m2 CLR
03:35 -1.9 °C -4.1 °C 1019.1 hPa Calm     85% 0.0 mm 0.00 W/m2 CLR
03:40 -1.9 °C -4.1 °C 1019.0 hPa Calm     85% 0.0 mm 0.00 W/m2 CLR
03:45 -1.9 °C -4.1 °C 1018.9 hPa Calm     85% 0.0 mm 0.00 W/m2 CLR
03:50 -2.0 °C -4.2 °C 1018.9 hPa Calm     85% 0.0 mm 0.00 W/m2 CLR
03:55 -2.0 °C -4.2 °C 1018.9 hPa Calm     85% 0.0 mm 0.00 W/m2 CLR
04:00 -2.0 °C -4.1 °C 1018.9 hPa Calm     86% 0.0 mm 0.00 W/m2 CLR
04:05 -2.0 °C -4.1 °C 1018.9 hPa Calm     86% 0.0 mm 0.00 W/m2 CLR
04:10 -2.0 °C -4.1 °C 1018.9 hPa Calm     86% 0.0 mm 0.00 W/m2 CLR
04:15 -2.1 °C -4.1 °C 1018.9 hPa Calm     86% 0.0 mm 0.00 W/m2 CLR
04:20 -2.1 °C -4.1 °C 1018.8 hPa Calm     86% 0.0 mm 0.00 W/m2 CLR
04:25 -2.1 °C -4.1 °C 1018.8 hPa Calm     86% 0.0 mm 0.00 W/m2 CLR
04:30 -2.1 °C -4.1 °C 1018.7 hPa Calm     86% 0.0 mm 0.00 W/m2 CLR
04:35 -2.1 °C -4.1 °C 1018.7 hPa Calm     86% 0.0 mm 0.00 W/m2 CLR
04:40 -2.1 °C -4.1 °C 1018.7 hPa Calm     86% 0.0 mm 0.00 W/m2 CLR
04:45 -2.1 °C -4.1 °C 1018.6 hPa Calm     86% 0.0 mm 0.00 W/m2 CLR
04:50 -2.1 °C -4.1 °C 1018.6 hPa Calm     86% 0.0 mm 0.00 W/m2 CLR
04:55 -2.2 °C -4.2 °C 1018.5 hPa Calm     86% 0.0 mm 0.00 W/m2 CLR
05:00 -2.1 °C -4.1 °C 1018.5 hPa Calm     86% 0.0 mm 0.00 W/m2 CLR
05:05 -2.1 °C -4.1 °C 1018.5 hPa Calm     86% 0.0 mm 0.00 W/m2 CLR
05:10 -2.1 °C -4.1 °C 1018.5 hPa Calm     86% 0.0 mm 0.00 W/m2 CLR
05:15 -2.1 °C -4.1 °C 1018.5 hPa Calm     86% 0.0 mm 0.00 W/m2 CLR
05:20 -2.1 °C -4.1 °C 1018.4 hPa Calm     86% 0.0 mm 0.00 W/m2 CLR
05:25 -2.2 °C -4.2 °C 1018.4 hPa Calm     86% 0.0 mm 0.00 W/m2 CLR
05:30 -2.2 °C -4.2 °C 1018.5 hPa Calm     86% 0.0 mm 0.00 W/m2 CLR
05:35 -2.2 °C -4.2 °C 1018.5 hPa Calm     86% 0.0 mm 0.00 W/m2 CLR
05:40 -2.2 °C -4.2 °C 1018.4 hPa Calm     86% 0.0 mm 0.00 W/m2 CLR
05:45 -2.2 °C -4.2 °C 1018.4 hPa Calm     86% 0.0 mm 0.00 W/m2 CLR
05:50 -2.2 °C -4.2 °C 1018.4 hPa Calm     86% 0.0 mm 0.00 W/m2 CLR
05:55 -2.2 °C -4.2 °C 1018.4 hPa Calm     86% 0.0 mm 0.00 W/m2 CLR
06:00 -2.2 °C -4.2 °C 1018.3 hPa Calm     86% 0.0 mm 0.00 W/m2 CLR
06:05 -2.3 °C -4.3 °C 1018.3 hPa Calm     86% 0.0 mm 0.00 W/m2 CLR
06:10 -2.3 °C -4.3 °C 1018.3 hPa Calm     86% 0.0 mm 0.00 W/m2 CLR
06:15 -2.3 °C -4.3 °C 1018.3 hPa Calm     86% 0.0 mm 0.00 W/m2 CLR
06:20 -2.3 °C -4.3 °C 1018.2 hPa Calm     86% 0.0 mm 0.00 W/m2 CLR
06:25 -2.4 °C -4.4 °C 1018.1 hPa Calm     86% 0.0 mm 0.00 W/m2 CLR
06:30 -2.4 °C -4.4 °C 1018.1 hPa Calm     86% 0.0 mm 0.00 W/m2 CLR
06:35 -2.4 °C -4.4 °C 1018.1 hPa Calm     86% 0.0 mm 0.00 W/m2 CLR
06:40 -2.4 °C -4.4 °C 1018.1 hPa Calm     86% 0.0 mm 0.00 W/m2 CLR
06:45 -2.5 °C -4.5 °C 1018.1 hPa Calm     86% 0.0 mm 0.00 W/m2 CLR
06:50 -2.5 °C -4.5 °C 1018.1 hPa Calm     86% 0.0 mm 0.00 W/m2 CLR
06:55 -2.6 °C -4.4 °C 1018.1 hPa Calm     87% 0.0 mm 0.00 W/m2 CLR
07:00 -2.5 °C -4.4 °C 1018.1 hPa Calm     87% 0.0 mm 0.00 W/m2 CLR
07:05 -2.6 °C -4.4 °C 1018.1 hPa Calm     87% 0.0 mm 0.00 W/m2 CLR
07:10 -2.6 °C -4.4 °C 1018.1 hPa Calm     87% 0.0 mm 0.00 W/m2 CLR
07:15 -2.6 °C -4.6 °C 1018.1 hPa Calm     86% 0.0 mm 0.00 W/m2 CLR
07:20 -2.7 °C -4.7 °C 1018.1 hPa Calm     86% 0.0 mm 0.00 W/m2 CLR
07:25 -2.7 °C -4.7 °C 1018.1 hPa Calm     86% 0.0 mm 0.00 W/m2 CLR
07:30 -2.7 °C -4.7 °C 1018.1 hPa Calm     86% 0.0 mm 0.00 W/m2 CLR
07:35 -2.7 °C -4.7 °C 1018.2 hPa Calm     86% 0.0 mm 0.00 W/m2 CLR
07:40 -2.7 °C -4.7 °C 1018.2 hPa Calm     86% 0.0 mm 0.00 W/m2 CLR
07:45 -2.8 °C -4.8 °C 1018.1 hPa Calm     86% 0.0 mm 0.00 W/m2 CLR
07:50 -2.8 °C -4.8 °C 1018.1 hPa Calm     86% 0.0 mm 0.00 W/m2 CLR
07:55 -2.8 °C -4.8 °C 1018.1 hPa Calm     86% 0.0 mm 0.00 W/m2 CLR
08:00 -2.9 °C -4.9 °C 1018.2 hPa Calm     86% 0.0 mm 0.00 W/m2 CLR
08:05 -3.0 °C -5.0 °C 1018.2 hPa Calm     86% 0.0 mm 0.00 W/m2 CLR
08:10 -3.1 °C -5.1 °C 1018.2 hPa Calm     86% 0.0 mm 0.00 W/m2 CLR
08:15 -3.1 °C -5.1 °C 1018.3 hPa Calm     86% 0.0 mm 0.00 W/m2 CLR
08:20 -3.2 °C -5.2 °C 1018.4 hPa Calm     86% 0.0 mm 0.00 W/m2 CLR
08:25 -3.2 °C -5.2 °C 1018.3 hPa Calm     86% 0.0 mm 0.00 W/m2 CLR
08:30 -3.3 °C -5.3 °C 1018.4 hPa Calm     86% 0.0 mm 0.00 W/m2 CLR
08:35 -3.3 °C -5.3 °C 1018.4 hPa Calm     86% 0.0 mm 0.00 W/m2 OVC
08:40 -3.3 °C -5.3 °C 1018.4 hPa Calm     86% 0.0 mm 0.00 W/m2 OVC
08:45 -3.4 °C -5.4 °C 1018.4 hPa Calm     86% 0.0 mm 5.00 W/m2 OVC
08:50 -3.4 °C -5.4 °C 1018.3 hPa Calm     86% 0.0 mm 7.00 W/m2 CLR
08:55 -3.4 °C -5.4 °C 1018.3 hPa Calm     86% 0.0 mm 9.00 W/m2 CLR
09:00 -3.4 °C -5.4 °C 1018.3 hPa Calm     86% 0.0 mm 12.00 W/m2 FEW
09:05 -3.4 °C -5.4 °C 1018.2 hPa Calm     86% 0.0 mm 14.00 W/m2 FEW
09:10 -3.5 °C -5.5 °C 1018.2 hPa Calm     86% 0.0 mm 18.00 W/m2 FEW
09:15 -3.5 °C -5.5 °C 1018.3 hPa Calm     86% 0.0 mm 19.00 W/m2 SCT
09:20 -3.5 °C -5.5 °C 1018.2 hPa Calm     86% 0.0 mm 23.00 W/m2 SCT
09:25 -3.5 °C -5.3 °C 1018.2 hPa Calm     87% 0.0 mm 25.00 W/m2 SCT
09:30 -3.4 °C -5.3 °C 1018.2 hPa Calm     87% 0.0 mm 28.00 W/m2 SCT
09:35 -3.4 °C -5.3 °C 1018.2 hPa Calm     87% 0.0 mm 32.00 W/m2 SCT
09:40 -3.4 °C -5.3 °C 1018.2 hPa Calm     87% 0.0 mm 37.00 W/m2 SCT
09:45 -3.4 °C -5.2 °C 1018.3 hPa Calm     87% 0.0 mm 40.00 W/m2 FEW
09:50 -3.3 °C -5.2 °C 1018.2 hPa Calm     87% 0.0 mm 44.00 W/m2 SCT
09:55 -3.3 °C -5.2 °C 1018.3 hPa Calm     87% 0.0 mm 53.00 W/m2 FEW
10:00 -3.3 °C -5.1 °C 1018.3 hPa Calm     87% 0.0 mm 60.00 W/m2 FEW
10:05 -3.2 °C -5.1 °C 1018.3 hPa Calm     87% 0.0 mm 65.00 W/m2 FEW
10:10 -3.2 °C -5.0 °C 1018.3 hPa Calm     87% 0.0 mm 72.00 W/m2 FEW
10:15 -3.1 °C -4.9 °C 1018.3 hPa Calm     87% 0.0 mm 95.00 W/m2 FEW
10:20 -3.0 °C -4.8 °C 1018.4 hPa SE 1.9 km/h 0.2 km/h 87% 0.0 mm 113.00 W/m2 CLR
10:25 -2.9 °C -4.8 °C 1018.4 hPa Calm     87% 0.0 mm 141.00 W/m2 CLR
10:30 -2.8 °C -4.5 °C 1018.4 hPa Calm     88% 0.0 mm 156.00 W/m2 CLR
10:35 -2.7 °C -4.4 °C 1018.3 hPa Calm     88% 0.0 mm 176.00 W/m2 CLR
10:40 -2.6 °C -4.3 °C 1018.3 hPa Calm     88% 0.0 mm 163.00 W/m2 CLR
10:45 -2.3 °C -4.0 °C 1018.3 hPa Calm     88% 0.0 mm 192.00 W/m2 CLR
10:50 -1.9 °C -3.6 °C 1018.3 hPa SSE 3.7 km/h   88% 0.0 mm 202.00 W/m2 CLR
10:55 -1.6 °C -3.5 °C 1018.3 hPa SE 5.6 km/h 1.4 km/h 87% 0.0 mm 204.00 W/m2 CLR
11:00 -1.4 °C -3.3 °C 1018.2 hPa South 3.7 km/h 0.3 km/h 87% 0.0 mm 206.00 W/m2 CLR
11:05 -1.2 °C -3.3 °C 1018.3 hPa SE 5.6 km/h 1.1 km/h 86% 0.0 mm 204.00 W/m2 CLR
11:10 -1.1 °C -3.3 °C 1018.2 hPa South 3.7 km/h 1.6 km/h 85% 0.0 mm 241.00 W/m2 CLR
11:15 -0.9 °C -3.3 °C 1018.2 hPa SE 5.6 km/h 3.2 km/h 84% 0.0 mm 239.00 W/m2 CLR
11:20 -0.8 °C -3.3 °C 1018.2 hPa SE 5.6 km/h 3.4 km/h 83% 0.0 mm 251.00 W/m2 CLR
11:25 -0.6 °C -3.2 °C 1018.3 hPa SE 1.9 km/h 0.5 km/h 83% 0.0 mm 253.00 W/m2 CLR
11:30 -0.5 °C -3.2 °C 1018.4 hPa South 5.6 km/h 3.1 km/h 82% 0.0 mm 258.00 W/m2 CLR
11:35 -0.3 °C -3.1 °C 1018.4 hPa SE 3.7 km/h 1.3 km/h 82% 0.0 mm 269.00 W/m2 CLR
11:40 -0.2 °C -3.1 °C 1018.4 hPa SE 5.6 km/h 2.9 km/h 81% 0.0 mm 276.00 W/m2 CLR
11:45 -0.1 °C -3.1 °C 1018.3 hPa ESE 5.6 km/h 2.6 km/h 80% 0.0 mm 290.00 W/m2 CLR
11:50 0.1 °C -3.0 °C 1018.3 hPa SSE 3.7 km/h 1.3 km/h 80% 0.0 mm 294.00 W/m2 CLR
11:55 0.2 °C -3.1 °C 1018.3 hPa SE 5.6 km/h 2.3 km/h 79% 0.0 mm 295.00 W/m2 CLR
12:00 0.2 °C -3.0 °C 1018.1 hPa SSE 3.7 km/h 1.6 km/h 79% 0.0 mm 297.00 W/m2 CLR
12:05 0.3 °C -2.9 °C 1018.1 hPa ESE 5.6 km/h 3.1 km/h 79% 0.0 mm 227.00 W/m2 CLR
12:10 0.4 °C -2.8 °C 1018.1 hPa SE 5.6 km/h 4.8 km/h 79% 0.0 mm 160.00 W/m2 CLR
12:15 0.4 °C -2.8 °C 1018.0 hPa South 1.9 km/h   79% 0.0 mm 163.00 W/m2 FEW
12:20 0.4 °C -2.8 °C 1018.0 hPa ESE 5.6 km/h 3.9 km/h 79% 0.0 mm 183.00 W/m2 FEW
12:25 0.4 °C -2.8 °C 1017.9 hPa ESE 5.6 km/h 2.3 km/h 79% 0.0 mm 206.00 W/m2 CLR
12:30 0.5 °C -2.7 °C 1017.8 hPa ESE 3.7 km/h 1.1 km/h 79% 0.0 mm 216.00 W/m2 CLR
12:35 0.7 °C -2.6 °C 1017.8 hPa SSE 1.9 km/h 0.5 km/h 79% 0.0 mm 213.00 W/m2 CLR
12:40 0.7 °C -2.7 °C 1017.8 hPa Calm     78% 0.0 mm 185.00 W/m2 CLR
12:45 0.7 °C -2.7 °C 1017.7 hPa Calm     78% 0.0 mm 169.00 W/m2 CLR
12:50 0.8 °C -2.6 °C 1017.7 hPa SE 5.6 km/h 2.9 km/h 78% 0.0 mm 146.00 W/m2 FEW
12:55 0.7 °C -2.7 °C 1017.6 hPa SSE 7.4 km/h 3.4 km/h 78% 0.0 mm 155.00 W/m2 FEW
13:00 0.8 °C -2.6 °C 1017.6 hPa SE 3.2 km/h 8.0 km/h 78% 0.0 mm 178.00 W/m2 FEW
13:05 0.8 °C -2.6 °C 1017.5 hPa SSE 5.6 km/h 2.3 km/h 78% 0.0 mm 179.00 W/m2 CLR
13:10 0.8 °C -2.7 °C 1017.5 hPa ESE 3.7 km/h 2.1 km/h 77% 0.0 mm 162.00 W/m2 CLR
13:15 0.8 °C -2.6 °C 1017.4 hPa Calm     78% 0.0 mm 155.00 W/m2 FEW
13:20 0.8 °C -2.7 °C 1017.4 hPa ESE 3.7 km/h 1.1 km/h 77% 0.0 mm 151.00 W/m2 FEW
13:25 0.8 °C -2.6 °C 1017.4 hPa SE 5.6 km/h 1.3 km/h 78% 0.0 mm 142.00 W/m2 FEW
13:30 0.9 °C -2.7 °C 1017.4 hPa ESE 3.7 km/h 1.1 km/h 77% 0.0 mm 132.00 W/m2 FEW
13:35 0.9 °C -2.7 °C 1017.3 hPa ESE 3.7 km/h 1.0 km/h 77% 0.0 mm 162.00 W/m2 FEW
13:40 0.9 °C -2.6 °C 1017.2 hPa ESE 5.6 km/h 1.3 km/h 77% 0.0 mm 151.00 W/m2 FEW
13:45 1.0 °C -2.6 °C 1017.1 hPa ESE 5.6 km/h 2.4 km/h 77% 0.0 mm 153.00 W/m2 FEW
13:50 1.0 °C -2.6 °C 1017.1 hPa Calm     77% 0.0 mm 149.00 W/m2 FEW
Weerstation Assen

© 2009 - 2019 Weerstation Assen
alle rechten voorbehouden
www.weerstation-assen.nl

Baseer nooit belangrijke beslissingen op deze of andere weergegevens verkregen via Internet.
Weerstation Assen op Facebook
Weerstation Assen op Twitter